Year,Month,Day,Hour,Minute,Value (Times are PST for temperature in C)
2017,12,11,00,00,-0.90
2017,12,11,00,01,-0.90
2017,12,11,00,02,-1.00
2017,12,11,00,03,-1.00
2017,12,11,00,04,-0.90
2017,12,11,00,05,-0.90
2017,12,11,00,06,-0.90
2017,12,11,00,07,-0.90
2017,12,11,00,08,-0.90
2017,12,11,00,09,-0.80
2017,12,11,00,10,-0.80
2017,12,11,00,11,-0.80
2017,12,11,00,12,-0.80
2017,12,11,00,13,-0.80
2017,12,11,00,14,-0.80
2017,12,11,00,15,-0.80
2017,12,11,00,16,-0.80
2017,12,11,00,17,-0.80
2017,12,11,00,18,-0.80
2017,12,11,00,19,-0.70
2017,12,11,00,20,-0.70
2017,12,11,00,21,-0.80
2017,12,11,00,22,-0.80
2017,12,11,00,23,-0.80
2017,12,11,00,24,-0.80
2017,12,11,00,25,-0.80
2017,12,11,00,26,-0.80
2017,12,11,00,27,-0.70
2017,12,11,00,28,-0.70
2017,12,11,00,29,-0.70
2017,12,11,00,30,-0.70
2017,12,11,00,31,-0.70
2017,12,11,00,32,-0.70
2017,12,11,00,33,-0.70
2017,12,11,00,34,-0.70
2017,12,11,00,35,-0.70
2017,12,11,00,36,-0.70
2017,12,11,00,37,-0.70
2017,12,11,00,38,-0.70
2017,12,11,00,39,-0.60
2017,12,11,00,40,-0.50
2017,12,11,00,41,-0.50
2017,12,11,00,42,-0.50
2017,12,11,00,43,-0.50
2017,12,11,00,44,-0.60
2017,12,11,00,45,-0.70
2017,12,11,00,46,-0.70
2017,12,11,00,47,-0.80
2017,12,11,00,48,-0.80
2017,12,11,00,49,-0.80
2017,12,11,00,50,-0.80
2017,12,11,00,51,-0.80
2017,12,11,00,52,-0.80
2017,12,11,00,53,-0.70
2017,12,11,00,54,-0.70
2017,12,11,00,55,-0.70
2017,12,11,00,56,-0.70
2017,12,11,00,57,-0.70
2017,12,11,00,58,-0.70
2017,12,11,00,59,-0.70
2017,12,11,01,00,-0.60
2017,12,11,01,01,-0.60
2017,12,11,01,02,-0.50
2017,12,11,01,03,-0.50
2017,12,11,01,04,-0.50
2017,12,11,01,05,-0.60
2017,12,11,01,06,-0.60
2017,12,11,01,07,-0.60
2017,12,11,01,08,-0.60
2017,12,11,01,09,-0.60
2017,12,11,01,10,-0.70
2017,12,11,01,11,-0.70
2017,12,11,01,12,-0.70
2017,12,11,01,13,-0.70
2017,12,11,01,14,-0.70
2017,12,11,01,15,-0.70
2017,12,11,01,16,-0.60
2017,12,11,01,17,-0.60
2017,12,11,01,18,-0.60
2017,12,11,01,19,-0.60
2017,12,11,01,20,-0.60
2017,12,11,01,21,-0.70
2017,12,11,01,22,-0.70
2017,12,11,01,23,-0.80
2017,12,11,01,24,-0.90
2017,12,11,01,25,-0.90
2017,12,11,01,26,-0.90
2017,12,11,01,27,-1.00
2017,12,11,01,28,-1.00
2017,12,11,01,29,-1.10
2017,12,11,01,30,-1.10
2017,12,11,01,31,-1.10
2017,12,11,01,32,-1.10
2017,12,11,01,33,-1.10
2017,12,11,01,34,-1.10
2017,12,11,01,35,-1.10
2017,12,11,01,36,-1.00
2017,12,11,01,37,-1.00
2017,12,11,01,38,-1.00
2017,12,11,01,39,-1.00
2017,12,11,01,40,-1.00
2017,12,11,01,41,-1.00
2017,12,11,01,42,-1.00
2017,12,11,01,43,-0.90
2017,12,11,01,44,-0.80
2017,12,11,01,45,-0.80
2017,12,11,01,46,-0.90
2017,12,11,01,47,-0.90
2017,12,11,01,48,-1.00
2017,12,11,01,49,-1.00
2017,12,11,01,50,-1.10
2017,12,11,01,51,-1.10
2017,12,11,01,52,-1.10
2017,12,11,01,53,-1.10
2017,12,11,01,54,-1.10
2017,12,11,01,55,-1.10
2017,12,11,01,56,-1.10
2017,12,11,01,57,-1.10
2017,12,11,01,58,-1.10
2017,12,11,01,59,-1.00
2017,12,11,02,00,-1.00
2017,12,11,02,01,-0.90
2017,12,11,02,02,-0.90
2017,12,11,02,03,-0.90
2017,12,11,02,04,-0.90
2017,12,11,02,05,-1.00
2017,12,11,02,06,-1.00
2017,12,11,02,07,-1.00
2017,12,11,02,08,-1.10
2017,12,11,02,09,-1.10
2017,12,11,02,10,-1.10
2017,12,11,02,11,-1.20
2017,12,11,02,12,-1.20
2017,12,11,02,13,-1.20
2017,12,11,02,14,-1.20
2017,12,11,02,15,-1.20
2017,12,11,02,16,-1.10
2017,12,11,02,17,-1.10
2017,12,11,02,18,-1.10
2017,12,11,02,19,-1.10
2017,12,11,02,20,-1.10
2017,12,11,02,21,-1.10
2017,12,11,02,22,-1.10
2017,12,11,02,23,-1.10
2017,12,11,02,24,-1.20
2017,12,11,02,25,-1.20
2017,12,11,02,26,-1.20
2017,12,11,02,27,-1.20
2017,12,11,02,28,-1.20
2017,12,11,02,29,-1.20
2017,12,11,02,30,-1.20
2017,12,11,02,31,-1.20
2017,12,11,02,32,-1.20
2017,12,11,02,33,-1.20
2017,12,11,02,34,-1.20
2017,12,11,02,35,-1.20
2017,12,11,02,36,-1.20
2017,12,11,02,37,-1.30
2017,12,11,02,38,-1.30
2017,12,11,02,39,-1.30
2017,12,11,02,40,-1.40
2017,12,11,02,41,-1.40
2017,12,11,02,42,-1.50
2017,12,11,02,43,-1.50
2017,12,11,02,44,-1.60
2017,12,11,02,45,-1.60
2017,12,11,02,46,-1.70
2017,12,11,02,47,-1.70
2017,12,11,02,48,-1.70
2017,12,11,02,49,-1.70
2017,12,11,02,50,-1.70
2017,12,11,02,51,-1.70
2017,12,11,02,52,-1.70
2017,12,11,02,53,-1.70
2017,12,11,02,54,-1.70
2017,12,11,02,55,-1.70
2017,12,11,02,56,-1.70
2017,12,11,02,57,-1.80
2017,12,11,02,58,-1.80
2017,12,11,02,59,-1.80
2017,12,11,03,00,-1.90
2017,12,11,03,01,-1.90
2017,12,11,03,02,-1.90
2017,12,11,03,03,-1.90
2017,12,11,03,04,-1.90
2017,12,11,03,05,-2.00
2017,12,11,03,06,-2.00
2017,12,11,03,07,-2.00
2017,12,11,03,08,-2.00
2017,12,11,03,09,-1.90
2017,12,11,03,10,-1.90
2017,12,11,03,11,-1.90
2017,12,11,03,12,-1.80
2017,12,11,03,13,-1.80
2017,12,11,03,14,-1.80
2017,12,11,03,15,-1.70
2017,12,11,03,16,-1.60
2017,12,11,03,17,-1.50
2017,12,11,03,18,-1.40
2017,12,11,03,19,-1.30
2017,12,11,03,20,-1.20
2017,12,11,03,21,-1.20
2017,12,11,03,22,-1.20
2017,12,11,03,23,-1.20
2017,12,11,03,24,-1.20
2017,12,11,03,25,-1.20
2017,12,11,03,26,-1.20
2017,12,11,03,27,-1.20
2017,12,11,03,28,-1.30
2017,12,11,03,29,-1.30
2017,12,11,03,30,-1.30
2017,12,11,03,31,-1.30
2017,12,11,03,32,-1.30
2017,12,11,03,33,-1.30
2017,12,11,03,34,-1.30
2017,12,11,03,35,-1.20
2017,12,11,03,36,-1.20
2017,12,11,03,37,-1.20
2017,12,11,03,38,-1.30
2017,12,11,03,39,-1.30
2017,12,11,03,40,-1.30
2017,12,11,03,41,-1.30
2017,12,11,03,42,-1.30
2017,12,11,03,43,-1.30
2017,12,11,03,44,-1.30
2017,12,11,03,45,-1.30
2017,12,11,03,46,-1.30
2017,12,11,03,47,-1.30
2017,12,11,03,48,-1.30
2017,12,11,03,49,-1.30
2017,12,11,03,50,-1.30
2017,12,11,03,51,-1.30
2017,12,11,03,52,-1.40
2017,12,11,03,53,-1.40
2017,12,11,03,54,-1.40
2017,12,11,03,55,-1.40
2017,12,11,03,56,-1.40
2017,12,11,03,57,-1.40
2017,12,11,03,58,-1.40
2017,12,11,03,59,-1.40
2017,12,11,04,00,-1.40
2017,12,11,04,01,-1.40
2017,12,11,04,02,-1.40
2017,12,11,04,03,-1.40
2017,12,11,04,04,-1.40
2017,12,11,04,05,-1.40
2017,12,11,04,06,-1.30
2017,12,11,04,07,-1.30
2017,12,11,04,08,-1.40
2017,12,11,04,09,-1.50
2017,12,11,04,10,-1.60
2017,12,11,04,11,-1.60
2017,12,11,04,12,-1.70
2017,12,11,04,13,-1.70
2017,12,11,04,14,-1.80
2017,12,11,04,15,-1.80
2017,12,11,04,16,-1.80
2017,12,11,04,17,-1.90
2017,12,11,04,18,-1.90
2017,12,11,04,19,-1.90
2017,12,11,04,20,-1.90
2017,12,11,04,21,-1.80
2017,12,11,04,22,-1.80
2017,12,11,04,23,-1.80
2017,12,11,04,24,-1.80
2017,12,11,04,25,-1.80
2017,12,11,04,26,-1.70
2017,12,11,04,27,-1.70
2017,12,11,04,28,-1.60
2017,12,11,04,29,-1.60
2017,12,11,04,30,-1.60
2017,12,11,04,31,-1.60
2017,12,11,04,32,-1.70
2017,12,11,04,33,-1.70
2017,12,11,04,34,-1.60
2017,12,11,04,35,-1.60
2017,12,11,04,36,-1.60
2017,12,11,04,37,-1.60
2017,12,11,04,38,-1.60
2017,12,11,04,39,-1.50
2017,12,11,04,40,-1.60
2017,12,11,04,41,-1.60
2017,12,11,04,42,-1.60
2017,12,11,04,43,-1.60
2017,12,11,04,44,-1.60
2017,12,11,04,45,-1.60
2017,12,11,04,46,-1.60
2017,12,11,04,47,-1.70
2017,12,11,04,48,-1.60
2017,12,11,04,49,-1.60
2017,12,11,04,50,-1.60
2017,12,11,04,51,-1.50
2017,12,11,04,52,-1.50
2017,12,11,04,53,-1.50
2017,12,11,04,54,-1.50
2017,12,11,04,55,-1.60
2017,12,11,04,56,-1.60
2017,12,11,04,57,-1.60
2017,12,11,04,58,-1.60
2017,12,11,04,59,-1.60
2017,12,11,05,00,-1.60
2017,12,11,05,01,-1.60
2017,12,11,05,02,-1.60
2017,12,11,05,03,-1.60
2017,12,11,05,04,-1.50
2017,12,11,05,05,-1.50
2017,12,11,05,06,-1.60
2017,12,11,05,07,-1.60
2017,12,11,05,08,-1.60
2017,12,11,05,09,-1.60
2017,12,11,05,10,-1.60
2017,12,11,05,11,-1.60
2017,12,11,05,12,-1.60
2017,12,11,05,13,-1.70
2017,12,11,05,14,-1.70
2017,12,11,05,15,-1.80
2017,12,11,05,16,-1.80
2017,12,11,05,17,-1.80
2017,12,11,05,18,-1.80
2017,12,11,05,19,-1.80
2017,12,11,05,20,-1.80
2017,12,11,05,21,-1.80
2017,12,11,05,22,-1.80
2017,12,11,05,23,-1.80
2017,12,11,05,24,-1.80
2017,12,11,05,25,-1.80
2017,12,11,05,26,-1.90
2017,12,11,05,27,-1.90
2017,12,11,05,28,-1.90
2017,12,11,05,29,-2.00
2017,12,11,05,30,-2.00
2017,12,11,05,31,-1.90
2017,12,11,05,32,-1.90
2017,12,11,05,33,-1.90
2017,12,11,05,34,-1.80
2017,12,11,05,35,-1.80
2017,12,11,05,36,-1.80
2017,12,11,05,37,-1.70
2017,12,11,05,38,-1.70
2017,12,11,05,39,-1.70
2017,12,11,05,40,-1.70
2017,12,11,05,41,-1.80
2017,12,11,05,42,-1.80
2017,12,11,05,43,-1.80
2017,12,11,05,44,-1.80
2017,12,11,05,45,-1.70
2017,12,11,05,46,-1.60
2017,12,11,05,47,-1.60
2017,12,11,05,48,-1.50
2017,12,11,05,49,-1.40
2017,12,11,05,50,-1.40
2017,12,11,05,51,-1.30
2017,12,11,05,52,-1.20
2017,12,11,05,53,-1.20
2017,12,11,05,54,-1.20
2017,12,11,05,55,-1.20
2017,12,11,05,56,-1.30
2017,12,11,05,57,-1.30
2017,12,11,05,58,-1.40
2017,12,11,05,59,-1.50
2017,12,11,06,00,-1.60
2017,12,11,06,01,-1.60
2017,12,11,06,02,-1.60
2017,12,11,06,03,-1.50
2017,12,11,06,04,-1.40
2017,12,11,06,05,-1.40
2017,12,11,06,06,-1.40
2017,12,11,06,07,-1.40
2017,12,11,06,08,-1.40
2017,12,11,06,09,-1.50
2017,12,11,06,10,-1.50
2017,12,11,06,11,-1.50
2017,12,11,06,12,-1.50
2017,12,11,06,13,-1.50
2017,12,11,06,14,-1.50
2017,12,11,06,15,-1.40
2017,12,11,06,16,-1.40
2017,12,11,06,17,-1.40
2017,12,11,06,18,-1.40
2017,12,11,06,19,-1.30
2017,12,11,06,20,-1.30
2017,12,11,06,21,-1.30
2017,12,11,06,22,-1.30
2017,12,11,06,23,-1.30
2017,12,11,06,24,-1.30
2017,12,11,06,25,-1.30
2017,12,11,06,26,-1.30
2017,12,11,06,27,-1.30
2017,12,11,06,28,-1.30
2017,12,11,06,29,-1.30
2017,12,11,06,30,-1.30
2017,12,11,06,31,-1.40
2017,12,11,06,32,-1.40
2017,12,11,06,33,-1.40
2017,12,11,06,34,-1.50
2017,12,11,06,35,-1.60
2017,12,11,06,36,-1.60
2017,12,11,06,37,-1.70
2017,12,11,06,38,-1.70
2017,12,11,06,39,-1.80
2017,12,11,06,40,-1.90
2017,12,11,06,41,-1.90
2017,12,11,06,42,-1.90
2017,12,11,06,43,-1.90
2017,12,11,06,44,-1.90
2017,12,11,06,45,-1.90
2017,12,11,06,46,-1.80
2017,12,11,06,47,-1.80
2017,12,11,06,48,-1.80
2017,12,11,06,49,-1.70
2017,12,11,06,50,-1.70
2017,12,11,06,51,-1.60
2017,12,11,06,52,-1.60
2017,12,11,06,53,-1.60
2017,12,11,06,54,-1.50
2017,12,11,06,55,-1.50
2017,12,11,06,56,-1.40
2017,12,11,06,57,-1.40
2017,12,11,06,58,-1.30
2017,12,11,06,59,-1.30
2017,12,11,07,00,-1.30
2017,12,11,07,01,-1.20
2017,12,11,07,02,-1.20
2017,12,11,07,03,-1.20
2017,12,11,07,04,-1.20
2017,12,11,07,05,-1.10
2017,12,11,07,06,-1.10
2017,12,11,07,07,-1.10
2017,12,11,07,08,-1.10
2017,12,11,07,09,-1.10
2017,12,11,07,10,-1.10
2017,12,11,07,11,-1.10
2017,12,11,07,12,-1.10
2017,12,11,07,13,-1.10
2017,12,11,07,14,-1.10
2017,12,11,07,15,-1.10
2017,12,11,07,16,-1.10
2017,12,11,07,17,-1.10
2017,12,11,07,18,-1.20
2017,12,11,07,19,-1.20
2017,12,11,07,20,-1.30
2017,12,11,07,21,-1.30
2017,12,11,07,22,-1.40
2017,12,11,07,23,-1.40
2017,12,11,07,24,-1.40
2017,12,11,07,25,-1.50
2017,12,11,07,26,-1.50
2017,12,11,07,27,-1.50
2017,12,11,07,28,-1.60
2017,12,11,07,29,-1.60
2017,12,11,07,30,-1.60
2017,12,11,07,31,-1.60
2017,12,11,07,32,-1.60
2017,12,11,07,33,-1.60
2017,12,11,07,34,-1.60
2017,12,11,07,35,-1.50
2017,12,11,07,36,-1.50
2017,12,11,07,37,-1.40
2017,12,11,07,38,-1.30
2017,12,11,07,39,-1.30
2017,12,11,07,40,-1.20
2017,12,11,07,41,-1.20
2017,12,11,07,42,-1.10
2017,12,11,07,43,-1.10
2017,12,11,07,44,-1.00
2017,12,11,07,45,-1.00
2017,12,11,07,46,-1.00
2017,12,11,07,47,-1.00
2017,12,11,07,48,-1.00
2017,12,11,07,49,-1.10
2017,12,11,07,50,-1.10
2017,12,11,07,51,-1.10
2017,12,11,07,52,-1.10
2017,12,11,07,53,-1.00
2017,12,11,07,54,-1.00
2017,12,11,07,55,-1.00
2017,12,11,07,56,-1.00
2017,12,11,07,57,-1.00
2017,12,11,07,58,-0.90
2017,12,11,07,59,-0.90
2017,12,11,08,00,-0.90
2017,12,11,08,01,-1.00
2017,12,11,08,02,-1.10
2017,12,11,08,03,-1.20
2017,12,11,08,04,-1.20
2017,12,11,08,05,-1.20
2017,12,11,08,06,-1.30
2017,12,11,08,07,-1.30
2017,12,11,08,08,-1.40
2017,12,11,08,09,-1.40
2017,12,11,08,10,-1.40
2017,12,11,08,11,-1.40
2017,12,11,08,12,-1.50
2017,12,11,08,13,-1.50
2017,12,11,08,14,-1.40
2017,12,11,08,15,-1.40
2017,12,11,08,16,-1.40
2017,12,11,08,17,-1.40
2017,12,11,08,18,-1.40
2017,12,11,08,19,-1.40
2017,12,11,08,20,-1.30
2017,12,11,08,21,-1.20
2017,12,11,08,22,-1.20
2017,12,11,08,23,-1.10
2017,12,11,08,24,-1.10
2017,12,11,08,25,-1.10
2017,12,11,08,26,-1.10
2017,12,11,08,27,-1.10
2017,12,11,08,28,-1.10
2017,12,11,08,29,-1.10
2017,12,11,08,30,-1.10
2017,12,11,08,31,-1.20
2017,12,11,08,32,-1.10
2017,12,11,08,33,-1.10
2017,12,11,08,34,-1.00
2017,12,11,08,35,-0.90
2017,12,11,08,36,-0.90
2017,12,11,08,37,-0.80
2017,12,11,08,38,-0.80
2017,12,11,08,39,-0.80
2017,12,11,08,40,-0.80
2017,12,11,08,41,-0.80
2017,12,11,08,42,-0.80
2017,12,11,08,43,-0.60
2017,12,11,08,44,-0.30
2017,12,11,08,45,-0.20
2017,12,11,08,46,-0.10
2017,12,11,08,47,0.00
2017,12,11,08,48,0.00
2017,12,11,08,49,0.10
2017,12,11,08,50,0.20
2017,12,11,08,51,0.30
2017,12,11,08,52,0.30
2017,12,11,08,53,0.40
2017,12,11,08,54,0.40
2017,12,11,08,55,0.50
2017,12,11,08,56,0.60
2017,12,11,08,57,0.60
2017,12,11,08,58,0.70
2017,12,11,08,59,0.80
2017,12,11,09,00,0.80
2017,12,11,09,01,0.90
2017,12,11,09,02,1.00
2017,12,11,09,03,1.00
2017,12,11,09,04,1.10
2017,12,11,09,05,1.20
2017,12,11,09,06,1.30
2017,12,11,09,07,1.40
2017,12,11,09,08,1.50
2017,12,11,09,09,1.50
2017,12,11,09,10,1.60
2017,12,11,09,11,1.60
2017,12,11,09,12,1.70
2017,12,11,09,13,1.80
2017,12,11,09,14,1.80
2017,12,11,09,15,1.90
2017,12,11,09,16,2.00
2017,12,11,09,17,2.00
2017,12,11,09,18,2.00
2017,12,11,09,19,2.00
2017,12,11,09,20,2.10
2017,12,11,09,21,2.10
2017,12,11,09,22,2.10
2017,12,11,09,23,2.10
2017,12,11,09,24,2.10
2017,12,11,09,25,2.10
2017,12,11,09,26,2.10
2017,12,11,09,27,2.20
2017,12,11,09,28,2.20
2017,12,11,09,29,2.20
2017,12,11,09,30,2.20
2017,12,11,09,31,2.30
2017,12,11,09,32,2.30
2017,12,11,09,33,2.30
2017,12,11,09,34,2.30
2017,12,11,09,35,2.30
2017,12,11,09,36,2.40
2017,12,11,09,37,2.40
2017,12,11,09,38,2.40
2017,12,11,09,39,2.50
2017,12,11,09,40,2.60
2017,12,11,09,41,2.60
2017,12,11,09,42,2.60
2017,12,11,09,43,2.60
2017,12,11,09,44,2.70
2017,12,11,09,45,2.70
2017,12,11,09,46,2.70
2017,12,11,09,47,2.70
2017,12,11,09,48,2.80
2017,12,11,09,49,2.80
2017,12,11,09,50,2.80
2017,12,11,09,51,2.80
2017,12,11,09,52,2.80
2017,12,11,09,53,2.80
2017,12,11,09,54,2.90
2017,12,11,09,55,2.90
2017,12,11,09,56,2.90
2017,12,11,09,57,3.00
2017,12,11,09,58,3.00
2017,12,11,09,59,3.10
2017,12,11,10,00,3.10
2017,12,11,10,01,3.20
2017,12,11,10,02,3.20
2017,12,11,10,03,3.30
2017,12,11,10,04,3.30
2017,12,11,10,05,3.30
2017,12,11,10,06,3.30
2017,12,11,10,07,3.40
2017,12,11,10,08,3.40
2017,12,11,10,09,3.50
2017,12,11,10,10,3.50
2017,12,11,10,11,3.60
2017,12,11,10,12,3.60
2017,12,11,10,13,3.60
2017,12,11,10,14,3.70
2017,12,11,10,15,3.70
2017,12,11,10,16,3.70
2017,12,11,10,17,3.80
2017,12,11,10,18,3.80
2017,12,11,10,19,3.80
2017,12,11,10,20,3.80
2017,12,11,10,21,3.90
2017,12,11,10,22,3.90
2017,12,11,10,23,3.90
2017,12,11,10,24,3.90
2017,12,11,10,25,3.90
2017,12,11,10,26,4.00
2017,12,11,10,27,4.00
2017,12,11,10,28,4.00
2017,12,11,10,29,4.00
2017,12,11,10,30,4.00
2017,12,11,10,31,4.10
2017,12,11,10,32,4.10
2017,12,11,10,33,4.10
2017,12,11,10,34,4.20
2017,12,11,10,35,4.20
2017,12,11,10,36,4.30
2017,12,11,10,37,4.30
2017,12,11,10,38,4.40
2017,12,11,10,39,4.50
2017,12,11,10,40,4.60
2017,12,11,10,41,4.70
2017,12,11,10,42,4.80
2017,12,11,10,43,4.90
2017,12,11,10,44,4.90
2017,12,11,10,45,4.90
2017,12,11,10,46,5.00
2017,12,11,10,47,5.00
2017,12,11,10,48,5.00
2017,12,11,10,49,5.10
2017,12,11,10,50,5.10
2017,12,11,10,51,5.20
2017,12,11,10,52,5.30
2017,12,11,10,53,5.30
2017,12,11,10,54,5.30
2017,12,11,10,55,5.30
2017,12,11,10,56,5.30
2017,12,11,10,57,5.30
2017,12,11,10,58,5.30
2017,12,11,10,59,5.40
2017,12,11,11,00,5.40
2017,12,11,11,01,5.40
2017,12,11,11,02,5.40
2017,12,11,11,03,5.40
2017,12,11,11,04,5.40
2017,12,11,11,05,5.40
2017,12,11,11,06,5.40
2017,12,11,11,07,5.50
2017,12,11,11,08,5.50
2017,12,11,11,09,5.60
2017,12,11,11,10,5.60
2017,12,11,11,11,5.70
2017,12,11,11,12,5.70
2017,12,11,11,13,5.70
2017,12,11,11,14,5.80
2017,12,11,11,15,5.80
2017,12,11,11,16,5.90
2017,12,11,11,17,6.00
2017,12,11,11,18,6.00
2017,12,11,11,19,6.10
2017,12,11,11,20,6.20
2017,12,11,11,21,6.20
2017,12,11,11,22,6.20
2017,12,11,11,23,6.30
2017,12,11,11,24,6.30
2017,12,11,11,25,6.30
2017,12,11,11,26,6.40
2017,12,11,11,27,6.40
2017,12,11,11,28,6.40
2017,12,11,11,29,6.40
2017,12,11,11,30,6.50
2017,12,11,11,31,6.50
2017,12,11,11,32,6.50
2017,12,11,11,33,6.50
2017,12,11,11,34,6.60
2017,12,11,11,35,6.60
2017,12,11,11,36,6.60
2017,12,11,11,37,6.60
2017,12,11,11,38,6.60
2017,12,11,11,39,6.60
2017,12,11,11,40,6.60
2017,12,11,11,41,6.60
2017,12,11,11,42,6.60
2017,12,11,11,43,6.60
2017,12,11,11,44,6.60
2017,12,11,11,45,6.60
2017,12,11,11,46,6.70
2017,12,11,11,47,6.70
2017,12,11,11,48,6.70
2017,12,11,11,49,6.70
2017,12,11,11,50,6.70
2017,12,11,11,51,6.70
2017,12,11,11,52,6.70
2017,12,11,11,53,6.70
2017,12,11,11,54,6.70
2017,12,11,11,55,6.70
2017,12,11,11,56,6.70
2017,12,11,11,57,6.80
2017,12,11,11,58,6.80
2017,12,11,11,59,6.80
2017,12,11,12,00,6.80
2017,12,11,12,01,6.80
2017,12,11,12,02,6.90
2017,12,11,12,03,6.90
2017,12,11,12,04,6.90
2017,12,11,12,05,6.90
2017,12,11,12,06,6.90
2017,12,11,12,07,6.90
2017,12,11,12,08,6.90
2017,12,11,12,09,6.90
2017,12,11,12,10,6.90
2017,12,11,12,11,6.90
2017,12,11,12,12,6.90
2017,12,11,12,13,6.90
2017,12,11,12,14,6.90
2017,12,11,12,15,6.90
2017,12,11,12,16,6.90
2017,12,11,12,17,6.90
2017,12,11,12,18,6.80
2017,12,11,12,19,6.80
2017,12,11,12,20,6.70
2017,12,11,12,21,6.70
2017,12,11,12,22,6.70
2017,12,11,12,23,6.60
2017,12,11,12,24,6.60
2017,12,11,12,25,6.60
2017,12,11,12,26,6.60
2017,12,11,12,27,6.50
2017,12,11,12,28,6.50
2017,12,11,12,29,6.50
2017,12,11,12,30,6.50
2017,12,11,12,31,6.40
2017,12,11,12,32,6.40
2017,12,11,12,33,6.40
2017,12,11,12,34,6.40
2017,12,11,12,35,6.30
2017,12,11,12,36,6.30
2017,12,11,12,37,6.30
2017,12,11,12,38,6.30
2017,12,11,12,39,6.30
2017,12,11,12,40,6.30
2017,12,11,12,41,6.30
2017,12,11,12,42,6.30
2017,12,11,12,43,6.30
2017,12,11,12,44,6.30
2017,12,11,12,45,6.30
2017,12,11,12,46,6.30
2017,12,11,12,47,6.30
2017,12,11,12,48,6.30
2017,12,11,12,49,6.30
2017,12,11,12,50,6.30
2017,12,11,12,51,6.40
2017,12,11,12,52,6.40
2017,12,11,12,53,6.40
2017,12,11,12,54,6.40
2017,12,11,12,55,6.40
2017,12,11,12,56,6.40
2017,12,11,12,57,6.40
2017,12,11,12,58,6.40
2017,12,11,12,59,6.40
2017,12,11,13,00,6.40
2017,12,11,13,01,6.40
2017,12,11,13,02,6.40
2017,12,11,13,03,6.40
2017,12,11,13,04,6.40
2017,12,11,13,05,6.40
2017,12,11,13,06,6.40
2017,12,11,13,07,6.30
2017,12,11,13,08,6.30
2017,12,11,13,09,6.30
2017,12,11,13,10,6.30
2017,12,11,13,11,6.30
2017,12,11,13,12,6.30
2017,12,11,13,13,6.30
2017,12,11,13,14,6.30
2017,12,11,13,15,6.30
2017,12,11,13,16,6.40
2017,12,11,13,17,6.40
2017,12,11,13,18,6.40
2017,12,11,13,19,6.40
2017,12,11,13,20,6.50
2017,12,11,13,21,6.50
2017,12,11,13,22,6.50
2017,12,11,13,23,6.50
2017,12,11,13,24,6.60
2017,12,11,13,25,6.50
2017,12,11,13,26,6.50
2017,12,11,13,27,6.50
2017,12,11,13,28,6.50
2017,12,11,13,29,6.50
2017,12,11,13,30,6.50
2017,12,11,13,31,6.50
2017,12,11,13,32,6.50
2017,12,11,13,33,6.60
2017,12,11,13,34,6.60
2017,12,11,13,35,6.60
2017,12,11,13,36,6.60
2017,12,11,13,37,6.60
2017,12,11,13,38,6.60
2017,12,11,13,39,6.60
2017,12,11,13,40,6.60
2017,12,11,13,41,6.60
2017,12,11,13,42,6.60
2017,12,11,13,43,6.60
2017,12,11,13,44,6.60
2017,12,11,13,45,6.60
2017,12,11,13,46,6.60
2017,12,11,13,47,6.60
2017,12,11,13,48,6.60
2017,12,11,13,49,6.60
2017,12,11,13,50,6.70
2017,12,11,13,51,6.70
2017,12,11,13,52,6.80
2017,12,11,13,53,6.80
2017,12,11,13,54,6.80
2017,12,11,13,55,6.80
2017,12,11,13,56,6.80
2017,12,11,13,57,6.80
2017,12,11,13,58,6.80
2017,12,11,13,59,6.80
2017,12,11,14,00,6.80
2017,12,11,14,01,6.80
2017,12,11,14,02,6.70
2017,12,11,14,03,6.70
2017,12,11,14,04,6.70
2017,12,11,14,05,6.70
2017,12,11,14,06,6.70
2017,12,11,14,07,6.70
2017,12,11,14,08,6.60
2017,12,11,14,09,6.60
2017,12,11,14,10,6.60
2017,12,11,14,11,6.60
2017,12,11,14,12,6.60
2017,12,11,14,13,6.50
2017,12,11,14,14,6.50
2017,12,11,14,15,6.50
2017,12,11,14,16,6.40
2017,12,11,14,17,6.40
2017,12,11,14,18,6.40
2017,12,11,14,19,6.40
2017,12,11,14,20,6.30
2017,12,11,14,21,6.30
2017,12,11,14,22,6.30
2017,12,11,14,23,6.30
2017,12,11,14,24,6.20
2017,12,11,14,25,6.20
2017,12,11,14,26,6.20
2017,12,11,14,27,6.20
2017,12,11,14,28,6.20
2017,12,11,14,29,6.20
2017,12,11,14,30,6.20
2017,12,11,14,31,6.20
2017,12,11,14,32,6.20
2017,12,11,14,33,6.20
2017,12,11,14,34,6.20
2017,12,11,14,35,6.10
2017,12,11,14,36,6.10
2017,12,11,14,37,6.10
2017,12,11,14,38,6.10
2017,12,11,14,39,6.00
2017,12,11,14,40,6.00
2017,12,11,14,41,6.00
2017,12,11,14,42,6.00
2017,12,11,14,43,5.90
2017,12,11,14,44,5.90
2017,12,11,14,45,5.90
2017,12,11,14,46,5.90
2017,12,11,14,47,5.80
2017,12,11,14,48,5.80
2017,12,11,14,49,5.80
2017,12,11,14,50,5.80
2017,12,11,14,51,5.80
2017,12,11,14,52,5.70
2017,12,11,14,53,5.70
2017,12,11,14,54,5.70
2017,12,11,14,55,5.60
2017,12,11,14,56,5.60
2017,12,11,14,57,5.60
2017,12,11,14,58,5.60
2017,12,11,14,59,5.50
2017,12,11,15,00,5.50
2017,12,11,15,01,5.50
2017,12,11,15,02,5.50
2017,12,11,15,03,5.40
2017,12,11,15,04,5.40
2017,12,11,15,05,5.40
2017,12,11,15,06,5.40
2017,12,11,15,07,5.40
2017,12,11,15,08,5.40
2017,12,11,15,09,5.40
2017,12,11,15,10,5.30
2017,12,11,15,11,5.30
2017,12,11,15,12,5.30
2017,12,11,15,13,5.30
2017,12,11,15,14,5.30
2017,12,11,15,15,5.30
2017,12,11,15,16,5.30
2017,12,11,15,17,5.30
2017,12,11,15,18,5.30
2017,12,11,15,19,5.30
2017,12,11,15,20,5.20
2017,12,11,15,21,5.20
2017,12,11,15,22,5.20
2017,12,11,15,23,5.20
2017,12,11,15,24,5.20
2017,12,11,15,25,5.20
2017,12,11,15,26,5.20
2017,12,11,15,27,5.20
2017,12,11,15,28,5.20
2017,12,11,15,29,5.20
2017,12,11,15,30,5.10
2017,12,11,15,31,5.10
2017,12,11,15,32,5.10
2017,12,11,15,33,5.10
2017,12,11,15,34,5.10
2017,12,11,15,35,5.00
2017,12,11,15,36,5.00
2017,12,11,15,37,5.00
2017,12,11,15,38,5.00
2017,12,11,15,39,5.00
2017,12,11,15,40,5.00
2017,12,11,15,41,5.00
2017,12,11,15,42,5.00
2017,12,11,15,43,5.00
2017,12,11,15,44,5.00
2017,12,11,15,45,4.90
2017,12,11,15,46,4.90
2017,12,11,15,47,4.90
2017,12,11,15,48,4.90
2017,12,11,15,49,4.90
2017,12,11,15,50,4.90
2017,12,11,15,51,4.80
2017,12,11,15,52,4.80
2017,12,11,15,53,4.80
2017,12,11,15,54,4.80
2017,12,11,15,55,4.70
2017,12,11,15,56,4.70
2017,12,11,15,57,4.70
2017,12,11,15,58,4.60
2017,12,11,15,59,4.60
2017,12,11,16,00,4.60
2017,12,11,16,01,4.60
2017,12,11,16,02,4.60
2017,12,11,16,03,4.50
2017,12,11,16,04,4.50
2017,12,11,16,05,4.40
2017,12,11,16,06,4.40
2017,12,11,16,07,4.40
2017,12,11,16,08,4.40
2017,12,11,16,09,4.30
2017,12,11,16,10,4.30
2017,12,11,16,11,4.30
2017,12,11,16,12,4.30
2017,12,11,16,13,4.20
2017,12,11,16,14,4.20
2017,12,11,16,15,4.20
2017,12,11,16,16,4.20
2017,12,11,16,17,4.10
2017,12,11,16,18,4.00
2017,12,11,16,19,4.00
2017,12,11,16,20,4.00
2017,12,11,16,21,3.90
2017,12,11,16,22,3.90
2017,12,11,16,23,3.90
2017,12,11,16,24,3.80
2017,12,11,16,25,3.80
2017,12,11,16,26,3.70
2017,12,11,16,27,3.70
2017,12,11,16,28,3.70
2017,12,11,16,29,3.60
2017,12,11,16,30,3.60
2017,12,11,16,31,3.60
2017,12,11,16,32,3.50
2017,12,11,16,33,3.40
2017,12,11,16,34,3.40
2017,12,11,16,35,3.30
2017,12,11,16,36,3.30
2017,12,11,16,37,3.20
2017,12,11,16,38,3.20
2017,12,11,16,39,3.20
2017,12,11,16,40,3.10
2017,12,11,16,41,3.10
2017,12,11,16,42,3.10
2017,12,11,16,43,3.00
2017,12,11,16,44,3.00
2017,12,11,16,45,2.90
2017,12,11,16,46,2.90
2017,12,11,16,47,2.90
2017,12,11,16,48,2.80
2017,12,11,16,49,2.80
2017,12,11,16,50,2.80
2017,12,11,16,51,2.80
2017,12,11,16,52,2.70
2017,12,11,16,53,2.70
2017,12,11,16,54,2.60
2017,12,11,16,55,2.50
2017,12,11,16,56,2.50
2017,12,11,16,57,2.40
2017,12,11,16,58,2.40
2017,12,11,16,59,2.40
2017,12,11,17,00,2.40
2017,12,11,17,01,2.40
2017,12,11,17,02,2.30
2017,12,11,17,03,2.30
2017,12,11,17,04,2.30
2017,12,11,17,05,2.30
2017,12,11,17,06,2.30
2017,12,11,17,07,2.20
2017,12,11,17,08,2.20
2017,12,11,17,09,2.20
2017,12,11,17,10,2.20
2017,12,11,17,11,2.10
2017,12,11,17,12,2.10
2017,12,11,17,13,2.00
2017,12,11,17,14,2.00
2017,12,11,17,15,1.90
2017,12,11,17,16,1.90
2017,12,11,17,17,1.90
2017,12,11,17,18,1.90
2017,12,11,17,19,1.90
2017,12,11,17,20,1.80
2017,12,11,17,21,1.80
2017,12,11,17,22,1.80
2017,12,11,17,23,1.80
2017,12,11,17,24,1.80
2017,12,11,17,25,1.80
2017,12,11,17,26,1.90
2017,12,11,17,27,2.00
2017,12,11,17,28,2.00
2017,12,11,17,29,2.00
2017,12,11,17,30,2.00
2017,12,11,17,31,2.00
2017,12,11,17,32,1.90
2017,12,11,17,33,1.90
2017,12,11,17,34,1.90
2017,12,11,17,35,1.90
2017,12,11,17,36,1.90
2017,12,11,17,37,1.90
2017,12,11,17,38,1.90
2017,12,11,17,39,1.80
2017,12,11,17,40,1.80
2017,12,11,17,41,1.80
2017,12,11,17,42,1.70